Location: �chenoz-la-M�line
(47.6009°N, 6.1354°E)
Time: 11:47:56
(UTC+00:00)

Cosmos 2084 Rocket - Pass Details

Date: 27 January 2021
Orbit: 532 x 649 km, 62.8° (Epoch: 02 March)

Event Time Altitude Azimuth Distance (km) Brightness Sun altitude
Exits shadow 04:37:19 72° 124° (SE) 642 3.6 -25.3°
Drops below altitude 10° 04:41:24 10° 138° (SE) 1,987 6.7 -24.6°
Sets 04:43:42 0° 139° (SE) 2,906 7.6 -24.3°
